Location: Waco, TX
(31.5480°N, 97.1670°W)
Time: 12:35:56
(UTC-06:00)

ISS - Pass Details

Date: 13 February 2018
Orbit: 402 x 407 km, 51.6° (Epoch: 24 February)

Event Time Altitude Azimuth Distance (km) Brightness Sun altitude
Rises 10:19:20 0° 200° (SSW) 2,302 0.3 33.5°
Reaches altitude 10° 10:21:37 10° 186° (S) 1,446 -0.4 33.9°
Maximum altitude 10:24:20 25° 129° (SE) 859 0.0 34.3°
Drops below altitude 10° 10:27:04 10° 72° (ENE) 1,452 -0.6 34.7°
Sets 10:29:21 0° 58° (ENE) 2,313 0.1 35.0°
